Weather at custom point

    39°02′52″N   77°28′22″W   America/New_York
temp.,
°C
wind,
m/s
gust,
m/s
humid.,
%
clouds,
%
prec.,
mm/h
press.,
hPa
HPBL,
m
23 may, mon
mon2323:00+18nw51291100 1.2 1020449
02:00+15nw51284100 1.2 1021442
05:00+15nnw51175100 0.0 1022493
08:00+15nne4777100 0.0 1024511
11:00+18nne4563100 0.0 1024865
14:00+20nne445789 0.0 10231008
17:00+17n2573100 0.1 1022306
20:00+13nne3895100 2.5 1023296
24 may, tue
tue2423:00+13nne2495100 1.0 1023154
02:00+12n2399100 5.1 1023175
05:00+13nne2499100 2.1 1022214
08:00+13ene2799100 3.2 1023386
11:00+13ese3896100 0.2 1024555
14:00+14ese3896100 0.6 1024565
17:00+13e2795100 0.2 1024514
20:00+13e2594100 0.6 1025261
25 may, wed
wed2523:00+12ne1293100 0.1 102569
02:00+12nne2291100 0.1 102464
05:00+12nne2593100 0.1 1024190
08:00+13ne2692100 0.1 1026288
11:00+14ne2584100 0.0 1026386
14:00+17e3580100 0.0 1026770
17:00+16e2578100 0.0 1025611
20:00+14e2588100 0.1 1025214
26 may, thu
thu2623:00+14ese2589100 0.0 1026293
02:00+14ese2691100 0.0 1024326
05:00+14e1190100 0.0 102359
08:00+15ese1291100 0.1 1024148
11:00+17sse018699 0.0 1023432
14:00+22sse2368100 0.0 1021985
17:00+25s356383 0.0 10181203
20:00+22se398094 0.0 1017295
27 may, fri
fri2723:00+19sse31093100 0.0 1017251
02:00+19s31392100 0.3 1016447
05:00+19s31294100 0.3 1015477
08:00+21ssw41389100 0.3 1015611
11:00+25ssw6106852 0.0 10141148
14:00+27ssw61061100 0.1 10131512
17:00+21ssw41094100 3.2 1012445
20:00+20s61295100 7.2 1012555